CW3821 Weather Reports


Display with metric or nautical units.
time (UTC)temp
F
wind
direction
speed
MPH
gust
MPH
rain 1hr
in
rain 24hr
in
rain mn
in
humidity
%
barometer
mb
20230206181527 42 312 7.0 0.0 0.00 0.00 0.00 20 1009.1
20230206180012 42 295 9.0 0.0 0.00 0.00 0.00 21 1009.1
20230206174515 42 353 8.0 0.0 0.00 0.00 0.00 20 1008.7
20230206173021 41 359 8.0 0.0 0.00 0.00 0.00 20 1008.5
20230206171515 42 292 5.0 0.0 0.00 0.00 0.00 20 1007.7
20230206170108 42 232 5.0 0.0 0.00 0.00 0.00 20 1007.5
20230206170010 42 258 5.0 0.0 0.00 0.00 0.00 20 1007.5
20230206164509 41 251 9.0 0.0 0.00 0.00 0.00 21 1008.0
20230206163007 40 284 8.0 0.0 0.00 0.00 0.00 22 1007.8
20230206161602 40 284 9.0 0.0 0.00 0.00 0.00 21 1007.5
20230206161509 40 278 8.0 0.0 0.00 0.00 0.00 21 1007.5
20230206160006 39 261 11.0 0.0 0.00 0.00 0.00 23 1006.8
20230206154513 39 296 8.0 0.0 0.00 0.00 0.00 26 1006.8
20230206153016 39 288 8.0 0.0 0.00 0.00 0.00 26 1006.9
20230206151516 39 311 7.0 0.0 0.00 0.00 0.00 27 1006.7
20230206150002 38 285 3.0 0.0 0.00 0.00 0.00 34 1005.7
20230206144606 38 265 1.0 0.0 0.00 0.00 0.00 39 1005.9
20230206144506 38 265 1.0 0.0 0.00 0.00 0.00 39 1005.9
20230206143008 36 289 2.0 0.0 0.00 0.00 0.00 43 1005.5
20230206141513 35 275 1.0 0.0 0.00 0.00 0.00 55 1005.6
20230206140011 35 323 0.0 0.0 0.00 0.00 0.00 55 1004.8
20230206134603 35 347 1.0 0.0 0.00 0.00 0.00 55 1004.6
20230206134501 35 346 1.0 0.0 0.00 0.00 0.00 55 1004.6
20230206133055 34 339 2.0 0.0 0.00 0.00 0.00 54 1004.6
20230206133010 34 335 2.0 0.0 0.00 0.00 0.00 54 1004.6
20230206131603 35 151 0.0 0.0 0.00 0.00 0.00 54 1004.6
20230206130053 34 191 1.0 0.0 0.00 0.00 0.00 55 1004.1
20230206124557 35 144 2.0 0.0 0.00 0.00 0.00 53 1003.7
20230206123100 35 165 1.0 0.0 0.00 0.00 0.00 54 1003.7
20230206121546 35 120 1.0 0.0 0.00 0.00 0.00 56 1003.7
20230206120058 36 114 6.0 0.0 0.00 0.00 0.00 52 1001.4
20230206114539 39 17 5.0 0.0 0.00 0.00 0.00 48 1000.7
20230206113040 39 320 9.0 0.0 0.00 0.00 0.00 53 1000.2
20230206111543 39 265 6.0 0.0 0.00 0.00 0.00 55 999.9
20230206110033 37 282 3.0 0.0 0.00 0.00 0.00 43 1000.2
20230206104520 35 287 5.0 0.0 0.00 0.00 0.00 46 1001.2
20230206103023 30 216 1.0 0.0 0.00 0.00 0.00 52 1001.6
20230206101511 31 253 1.0 0.0 0.00 0.00 0.00 54 1001.3
20230206100008 29 234 1.0 0.0 0.00 0.00 0.00 58 1001.3
20230206094506 28 240 2.0 0.0 0.00 0.00 0.00 60 1001.9
20230206093059 29 246 1.0 0.0 0.00 0.00 0.00 60 1001.6
20230206093003 29 246 1.0 0.0 0.00 0.00 0.00 60 1001.6
20230206091512 29 243 2.0 0.0 0.00 0.00 0.00 60 1001.8
20230206090101 30 287 0.0 0.0 0.00 0.00 0.00 63 1001.1
20230206090002 30 287 0.0 0.0 0.00 0.00 0.00 63 1001.1
20230206084605 31 302 0.0 0.0 0.00 0.00 0.00 60 1001.4
20230206083054 31 304 0.0 0.0 0.00 0.00 0.00 62 1001.5
20230206081551 31 302 1.0 0.0 0.00 0.00 0.00 62 1001.5
20230206080042 31 344 1.0 0.0 0.00 0.00 0.00 64 1002.2
20230206074547 31 261 1.0 0.0 0.00 0.00 0.00 62 1001.9
20230206073033 33 339 1.0 0.0 0.00 0.00 0.00 60 1002.1
20230206071538 31 342 2.0 0.0 0.00 0.00 0.00 65 1002.4
20230206070038 31 257 1.0 0.0 0.00 0.00 0.00 64 1003.3
20230206064526 31 271 0.0 0.0 0.00 0.00 0.00 65 1003.8
20230206063027 31 271 0.0 0.0 0.00 0.00 0.00 68 1003.9
20230206061520 31 265 1.0 0.0 0.00 0.00 0.00 67 1003.8
20230206060015 31 244 1.0 0.0 0.00 0.00 0.00 66 1004.6
20230206054520 31 92 1.0 0.0 0.00 0.00 0.00 65 1004.7
20230206053022 32 246 0.0 0.0 0.00 0.00 0.00 64 1004.9
20230206051505 31 219 1.0 0.0 0.00 0.00 0.00 67 1005.1
20230206050041 33 270 1.0 0.0 0.00 0.00 0.00 63 1005.7
20230206044544 34 333 0.0 0.0 0.00 0.00 0.00 63 1005.8
20230206043048 34 332 2.0 0.0 0.00 0.00 0.00 64 1005.8
20230206041548 35 333 0.0 0.0 0.00 0.00 0.00 60 1005.3
20230206040054 35 329 0.0 0.0 0.00 0.00 0.00 60 1006.1
20230206034550 36 332 0.0 0.0 0.00 0.00 0.00 59 1005.8
20230206033114 37 330 0.0 0.0 0.00 0.00 0.00 56 1006.1
20230206031554 38 332 0.0 0.0 0.00 0.00 0.00 55 1005.9
20230206030100 39 336 0.0 0.0 0.00 0.00 0.00 54 1007.2
20230206030003 38 335 0.0 0.0 0.00 0.00 0.00 54 1007.2
20230206024608 38 332 1.0 0.0 0.00 0.00 0.00 55 1007.3
20230206024508 38 328 1.0 0.0 0.00 0.00 0.00 55 1007.3
20230206023047 39 346 1.0 0.0 0.00 0.00 0.00 53 1007.4
20230206021540 40 354 1.0 0.0 0.00 0.00 0.00 52 1007.0
20230206020026 40 349 1.0 0.0 0.00 0.00 0.00 52 1007.5
20230206014531 41 346 1.0 0.0 0.00 0.00 0.00 48 1007.2
20230206013033 42 354 1.0 0.0 0.00 0.00 0.00 48 1007.2
20230206011532 42 357 1.0 0.0 0.00 0.00 0.00 48 1007.1
20230206010016 42 68 1.0 0.0 0.00 0.00 0.00 46 1006.5
20230206004516 43 71 2.0 0.0 0.00 0.00 0.00 45 1006.5
20230206003021 45 85 2.0 0.0 0.00 0.00 0.00 42 1006.0
20230206001555 47 47 2.0 0.0 0.00 0.00 0.00 37 1005.6
20230206000042 48 40 2.0 0.0 0.00 0.00 0.00 34 1005.2
20230205234539 49 55 1.0 0.0 0.00 0.00 0.00 33 1005.3
20230205233010 49 18 1.0 0.0 0.00 0.00 0.00 33 1005.4
20230205231542 49 23 2.0 0.0 0.00 0.00 0.00 33 1005.4
20230205230036 49 359 2.0 0.0 0.00 0.00 0.00 33 1004.9
20230205224540 49 25 4.0 0.0 0.00 0.00 0.00 32 1005.1
20230205223018 50 32 2.0 0.0 0.00 0.00 0.00 30 1005.2
20230205221553 51 30 2.0 0.0 0.00 0.00 0.00 30 1005.3
20230205220056 50 14 4.0 0.0 0.00 0.00 0.00 30 1004.9
20230205214543 51 44 3.0 0.0 0.00 0.00 0.00 27 1005.4
20230205213042 50 58 4.0 0.0 0.00 0.00 0.00 31 1005.4
20230205211534 51 37 4.0 0.0 0.00 0.00 0.00 30 1005.5
20230205210009 52 72 4.0 0.0 0.00 0.00 0.00 24 1006.0
20230205204554 53 0 2.0 0.0 0.00 0.00 0.00 23 1006.3
20230205204507 53 37 2.0 0.0 0.00 0.00 0.00 23 1006.3
20230205203054 53 71 1.0 0.0 0.00 0.00 0.00 20 1007.1
20230205201602 53 14 1.0 0.0 0.00 0.00 0.00 20 1007.7
20230205200038 52 17 1.0 0.0 0.00 0.00 0.00 21 1007.8
20230205194539 51 356 1.0 0.0 0.00 0.00 0.00 22 1008.2
20230205193004 51 23 1.0 0.0 0.00 0.00 0.00 23 1009.1
20230205191506 49 24 2.0 0.0 0.00 0.00 0.00 24 1009.8
20230205190056 49 44 2.0 0.0 0.00 0.00 0.00 26 1009.9
20230205184554 47 41 3.0 0.0 0.00 0.00 0.00 27 1010.4
20230205183038 46 18 2.0 0.0 0.00 0.00 0.00 29 1011.2